Location: Grand Lay
(47.3253°N, 0.9468°E)
Time: 21:32:56
(UTC+00:00)

Meteor 2-10 Rocket - Pass Details

Date: 18 January 2026
Orbit: 733 x 881 km, 81.2° (Epoch: 17 February)

Event Time Altitude Azimuth Distance (km) Brightness Sun altitude
Rises 05:51:43 0° 209° (SSW) 3,183 6.5 -17.4°
Reaches altitude 10° 05:54:07 10° 216° (SW) 2,279 5.7 -17.0°
Maximum altitude 05:59:00 44° 288° (WNW) 1,065 3.8 -16.2°
Drops below altitude 10° 06:04:07 10° 0° (N) 2,380 5.9 -15.3°
Sets 06:06:40 0° 7° (N) 3,340 6.7 -14.9°
